IBE352 KLAX-LEBB

Flight info

Callsign IBE352
Flight time N/A
Altitude 33000
Route ORCKA5 BEALE DCT BAWER DCT LARVE DCT EKR DCT CYS DCT FOD DCT PMM/N0470F350 J94 FNT DCT DERLO Q951 SIKBO DCT MIVOK DCT QUBIS DCT YQX/N0478F370 DCT JOOPY/M082F370 DCT 49N050W 51N040W 52N030W 52N020W DCT DINIM DCT ELSOX DCT TULTA/N0482F370 DCT DELOG N75 DOSUL DOSUL4Q
Aircraft A343/H-VGDW/C

Departure

Time N/A
Airport Los Angeles International Airport (KLAX)

Arrival

Time 2026-05-04 14:49
Airport Bilbao Airport (LEBB)
Time Latitude Longitude Altitude Speed Heading
2026-05-04 12:27 52.09810 -23.63438 37384 ft 475 kts 90°
2026-05-04 12:28 52.09681 -23.52699 37379 ft 475 kts 90°
2026-05-04 12:28 52.09542 -23.41924 37381 ft 480 kts 90°
2026-05-04 12:29 52.09392 -23.31001 37378 ft 487 kts 90°
2026-05-04 12:29 52.09230 -23.19999 37377 ft 493 kts 90°
2026-05-04 12:30 52.09054 -23.08773 37375 ft 500 kts 90°
2026-05-04 12:30 52.08865 -22.97484 37371 ft 499 kts 90°
2026-05-04 12:31 52.08666 -22.86220 37368 ft 498 kts 91°
2026-05-04 12:31 52.08458 -22.75039 37365 ft 498 kts 91°
2026-05-04 12:32 52.08125 -22.58162 37366 ft 498 kts 91°
2026-05-04 12:33 52.07889 -22.46910 37361 ft 498 kts 91°
2026-05-04 12:33 52.07644 -22.35729 37358 ft 498 kts 91°
2026-05-04 12:34 52.07387 -22.24483 37358 ft 498 kts 91°
2026-05-04 12:34 52.07120 -22.13236 37358 ft 498 kts 91°
2026-05-04 12:35 52.07004 -22.08509 37351 ft 498 kts 91°
2026-05-04 12:35 52.06721 -21.97271 37351 ft 498 kts 91°
2026-05-04 12:36 52.06429 -21.86093 37348 ft 498 kts 91°
2026-05-04 12:36 52.06125 -21.74842 37348 ft 498 kts 92°
2026-05-04 12:37 52.05809 -21.63589 37346 ft 499 kts 92°
2026-05-04 12:37 52.05483 -21.52343 37350 ft 498 kts 92°
2026-05-04 12:38 52.05149 -21.41174 37340 ft 498 kts 92°
2026-05-04 12:38 52.04801 -21.29921 37339 ft 498 kts 92°
2026-05-04 12:39 52.04444 -21.18690 37333 ft 497 kts 92°
2026-05-04 12:39 52.04075 -21.07464 37334 ft 498 kts 92°
2026-05-04 12:40 52.03699 -20.96317 37332 ft 498 kts 92°
2026-05-04 12:40 52.03310 -20.85089 37329 ft 498 kts 92°
2026-05-04 12:41 52.02909 -20.73859 37324 ft 498 kts 92°
2026-05-04 12:41 52.02498 -20.62629 37325 ft 498 kts 92°
2026-05-04 12:42 52.02079 -20.51474 37320 ft 498 kts 93°
2026-05-04 12:42 52.01646 -20.40253 37320 ft 498 kts 92°
2026-05-04 12:43 52.01204 -20.29040 37316 ft 498 kts 93°
2026-05-04 12:43 52.00753 -20.17896 37316 ft 498 kts 93°
2026-05-04 12:44 52.00289 -20.06683 37314 ft 497 kts 93°
2026-05-04 12:44 51.99197 -19.95616 37322 ft 498 kts 104°
2026-05-04 12:45 51.97389 -19.84780 37310 ft 498 kts 105°
2026-05-04 12:45 51.95473 -19.74067 37312 ft 497 kts 106°
2026-05-04 12:46 51.93532 -19.63293 37313 ft 498 kts 106°
2026-05-04 12:46 51.91596 -19.52517 37309 ft 498 kts 106°
2026-05-04 12:47 51.89657 -19.41745 37300 ft 498 kts 106°
2026-05-04 12:47 51.87712 -19.30994 37302 ft 498 kts 106°
2026-05-04 12:48 51.85769 -19.20316 37306 ft 497 kts 106°
2026-05-04 12:48 51.83803 -19.09582 37305 ft 498 kts 106°
2026-05-04 12:49 51.81827 -18.98857 37293 ft 498 kts 106°
2026-05-04 12:49 51.79841 -18.88138 37297 ft 498 kts 106°
2026-05-04 12:50 51.77861 -18.77511 37294 ft 498 kts 106°
2026-05-04 12:50 51.75855 -18.66808 37297 ft 498 kts 107°
2026-05-04 12:51 51.73844 -18.56139 37288 ft 498 kts 107°
2026-05-04 12:51 51.71824 -18.45480 37290 ft 496 kts 107°
2026-05-04 12:52 51.69808 -18.34906 37291 ft 497 kts 107°
2026-05-04 12:52 51.67771 -18.24283 37284 ft 496 kts 107°
2026-05-04 12:53 51.65722 -18.13655 37289 ft 496 kts 107°
2026-05-04 12:53 51.63668 -18.03061 37272 ft 496 kts 107°
2026-05-04 12:54 51.61603 -17.92466 37276 ft 495 kts 107°
2026-05-04 12:54 51.59548 -17.81985 37271 ft 496 kts 107°
2026-05-04 12:55 51.57473 -17.71453 37272 ft 494 kts 107°
2026-05-04 12:55 51.55387 -17.60927 37276 ft 494 kts 107°
2026-05-04 12:56 51.53301 -17.50457 37274 ft 491 kts 107°
2026-05-04 12:56 51.51972 -17.43817 37276 ft 492 kts 107°
2026-05-04 12:57 51.49873 -17.33371 37268 ft 491 kts 107°
2026-05-04 12:57 51.47770 -17.22964 37271 ft 489 kts 107°
2026-05-04 12:58 51.45666 -17.12611 37266 ft 487 kts 107°
2026-05-04 12:58 51.43575 -17.02367 37252 ft 487 kts 107°
2026-05-04 12:59 51.41465 -16.92090 37259 ft 484 kts 107°
2026-05-04 12:59 51.39354 -16.81855 37255 ft 484 kts 107°
2026-05-04 13:00 51.37235 -16.71638 37257 ft 484 kts 107°
2026-05-04 13:00 51.35122 -16.61497 37249 ft 484 kts 107°
2026-05-04 13:01 51.32989 -16.51320 37253 ft 482 kts 107°
2026-05-04 13:01 51.30855 -16.41184 37252 ft 480 kts 107°
2026-05-04 13:02 51.28720 -16.31099 37248 ft 478 kts 107°
2026-05-04 13:02 51.26596 -16.21109 37246 ft 478 kts 107°
2026-05-04 13:03 51.24448 -16.11057 37242 ft 478 kts 107°
2026-05-04 13:03 51.22293 -16.01019 37243 ft 478 kts 107°
2026-05-04 13:04 51.20126 -15.90984 37243 ft 478 kts 107°
2026-05-04 13:04 51.17970 -15.81041 37240 ft 477 kts 107°
2026-05-04 13:05 51.15797 -15.71072 37238 ft 476 kts 107°
2026-05-04 13:05 51.13618 -15.61121 37238 ft 476 kts 107°
2026-05-04 13:06 51.11430 -15.51177 37236 ft 476 kts 107°
2026-05-04 13:06 51.09233 -15.41238 37235 ft 476 kts 107°
2026-05-04 13:07 51.07044 -15.31384 37242 ft 476 kts 107°
2026-05-04 13:07 51.04832 -15.21479 37241 ft 475 kts 107°
2026-05-04 13:08 51.02618 -15.11609 37231 ft 474 kts 107°
2026-05-04 13:08 51.00594 -15.01684 37225 ft 470 kts 99°
2026-05-04 13:09 51.00015 -14.91503 37226 ft 465 kts 88°
2026-05-04 13:09 50.99999 -14.81229 37225 ft 465 kts 87°
2026-05-04 13:10 51.00064 -14.70961 37220 ft 465 kts 87°
2026-05-04 13:10 50.99596 -14.60702 37221 ft 470 kts 99°
2026-05-04 13:11 50.97310 -14.51028 37224 ft 477 kts 117°
2026-05-04 13:11 50.93397 -14.42465 37219 ft 482 kts 126°
2026-05-04 13:12 50.89121 -14.34273 37219 ft 483 kts 126°
2026-05-04 13:12 50.84810 -14.26112 37225 ft 483 kts 126°
2026-05-04 13:13 50.80528 -14.17925 37206 ft 483 kts 126°
2026-05-04 13:13 50.76290 -14.09785 37215 ft 483 kts 126°
2026-05-04 13:14 50.72020 -14.01596 37214 ft 483 kts 126°
2026-05-04 13:14 50.67747 -13.93432 37205 ft 482 kts 126°
2026-05-04 13:15 50.63471 -13.85292 37208 ft 482 kts 126°
2026-05-04 13:15 50.59221 -13.77224 37203 ft 482 kts 126°
2026-05-04 13:16 50.54936 -13.69116 37204 ft 482 kts 126°
2026-05-04 13:16 50.50644 -13.61021 37195 ft 482 kts 126°
2026-05-04 13:17 50.46350 -13.52948 37206 ft 481 kts 126°
2026-05-04 13:17 50.42085 -13.44955 37194 ft 481 kts 126°
2026-05-04 13:18 50.37786 -13.36921 37188 ft 481 kts 126°
2026-05-04 13:18 50.33482 -13.28904 37190 ft 481 kts 126°
2026-05-04 13:19 50.29172 -13.20899 37185 ft 481 kts 126°
2026-05-04 13:19 50.24855 -13.12908 37178 ft 481 kts 126°
2026-05-04 13:20 50.20564 -13.04988 37175 ft 481 kts 126°
2026-05-04 13:20 50.16233 -12.97019 37176 ft 481 kts 126°
2026-05-04 13:21 50.11900 -12.89071 37181 ft 482 kts 126°
2026-05-04 13:21 50.07553 -12.81122 37165 ft 482 kts 126°
2026-05-04 13:22 50.03234 -12.73248 37164 ft 482 kts 126°
2026-05-04 13:22 49.98878 -12.65330 37154 ft 482 kts 126°
2026-05-04 13:23 49.94513 -12.57421 37156 ft 482 kts 126°
2026-05-04 13:23 49.90132 -12.49504 37151 ft 484 kts 127°
2026-05-04 13:24 49.85764 -12.41637 37147 ft 485 kts 127°
2026-05-04 13:24 49.81358 -12.33726 37140 ft 485 kts 127°
2026-05-04 13:25 49.74737 -12.21881 37139 ft 486 kts 127°
2026-05-04 13:25 49.70296 -12.13966 37132 ft 488 kts 127°
2026-05-04 13:26 49.65870 -12.06104 37128 ft 488 kts 127°
2026-05-04 13:26 49.61410 -11.98205 37128 ft 488 kts 127°
2026-05-04 13:27 49.56946 -11.90322 37130 ft 488 kts 127°
2026-05-04 13:27 49.52463 -11.82428 37113 ft 490 kts 128°
2026-05-04 13:28 49.47966 -11.74534 37113 ft 491 kts 128°
2026-05-04 13:28 49.43491 -11.66704 37111 ft 491 kts 128°
2026-05-04 13:29 49.38978 -11.58830 37111 ft 491 kts 128°
2026-05-04 13:29 49.34455 -11.50964 37098 ft 492 kts 128°
2026-05-04 13:30 49.29919 -11.43097 37090 ft 493 kts 128°
2026-05-04 13:30 49.25376 -11.35243 37093 ft 493 kts 128°
2026-05-04 13:31 49.20859 -11.27458 37086 ft 493 kts 128°
2026-05-04 13:31 49.16305 -11.19630 37085 ft 493 kts 129°
2026-05-04 13:32 49.11739 -11.11805 37083 ft 493 kts 129°
2026-05-04 13:32 49.07165 -11.03992 37081 ft 493 kts 129°
2026-05-04 13:33 49.02621 -10.96254 37074 ft 493 kts 129°
2026-05-04 13:33 48.98045 -10.88482 37070 ft 493 kts 129°
2026-05-04 13:34 48.93457 -10.80714 37070 ft 493 kts 129°
2026-05-04 13:34 48.88863 -10.72958 37061 ft 494 kts 129°
2026-05-04 13:35 48.81991 -10.61399 37059 ft 494 kts 129°
2026-05-04 13:36 48.77383 -10.53677 37059 ft 494 kts 130°
2026-05-04 13:36 48.72762 -10.45958 37054 ft 494 kts 130°
2026-05-04 13:37 48.68172 -10.38312 37045 ft 494 kts 130°
2026-05-04 13:37 48.63547 -10.30631 37045 ft 494 kts 130°
2026-05-04 13:38 48.58918 -10.22963 37046 ft 494 kts 130°
2026-05-04 13:38 48.54277 -10.15299 37043 ft 495 kts 130°
2026-05-04 13:39 48.49627 -10.07644 37043 ft 495 kts 130°
2026-05-04 13:39 48.45004 -10.00055 37032 ft 495 kts 131°
2026-05-04 13:40 48.40346 -9.92431 37039 ft 495 kts 131°
2026-05-04 13:40 48.35690 -9.84832 37034 ft 493 kts 131°
2026-05-04 13:41 48.31037 -9.77259 37030 ft 493 kts 131°
2026-05-04 13:41 48.26408 -9.69748 37028 ft 493 kts 131°
2026-05-04 13:42 48.19404 -9.58423 37025 ft 494 kts 131°
2026-05-04 13:42 48.14724 -9.50883 37022 ft 494 kts 131°
2026-05-04 13:43 48.10034 -9.43350 37022 ft 494 kts 131°
2026-05-04 13:43 48.05373 -9.35883 37011 ft 494 kts 132°
2026-05-04 13:44 48.00680 -9.28388 37007 ft 494 kts 132°
2026-05-04 13:44 47.95982 -9.20905 37008 ft 494 kts 132°
2026-05-04 13:45 47.91277 -9.13434 37024 ft 494 kts 132°
2026-05-04 13:45 47.86601 -9.06028 37030 ft 494 kts 132°
2026-05-04 13:46 47.81883 -8.98577 37010 ft 494 kts 132°
2026-05-04 13:46 47.77160 -8.91140 37007 ft 494 kts 132°
2026-05-04 13:47 47.72433 -8.83717 37020 ft 495 kts 132°
2026-05-04 13:47 47.67730 -8.76352 37009 ft 495 kts 132°
2026-05-04 13:48 47.62992 -8.68955 37002 ft 495 kts 132°
2026-05-04 13:48 47.58245 -8.61563 37001 ft 495 kts 132°
2026-05-04 13:49 47.53491 -8.54182 37004 ft 495 kts 132°
2026-05-04 13:49 47.48766 -8.46865 37002 ft 495 kts 133°
2026-05-04 13:50 47.44003 -8.39511 37001 ft 495 kts 133°
2026-05-04 13:50 47.39232 -8.32166 36997 ft 495 kts 133°
2026-05-04 13:51 47.34467 -8.24849 36996 ft 494 kts 133°
2026-05-04 13:51 47.29733 -8.17602 36996 ft 494 kts 133°
2026-05-04 13:52 47.22580 -8.06686 36993 ft 494 kts 133°
2026-05-04 13:53 47.17808 -7.99430 36993 ft 494 kts 133°
2026-05-04 13:53 47.13027 -7.92179 36993 ft 494 kts 133°
2026-05-04 13:54 47.05878 -7.81376 36994 ft 495 kts 134°
2026-05-04 13:55 46.98681 -7.70544 36991 ft 494 kts 134°
2026-05-04 13:55 46.92295 -7.60971 36992 ft 494 kts 134°
2026-05-04 13:56 46.86709 -7.52623 36990 ft 495 kts 134°
2026-05-04 13:57 46.79475 -7.41854 36991 ft 495 kts 134°
2026-05-04 13:58 46.69846 -7.27587 36990 ft 495 kts 135°
2026-05-04 13:58 46.62589 -7.16886 36990 ft 495 kts 135°
2026-05-04 13:59 46.58563 -7.10967 36991 ft 495 kts 135°
2026-05-04 14:00 46.50502 -6.99157 36992 ft 495 kts 135°
2026-05-04 14:00 46.43222 -6.88536 36993 ft 495 kts 135°
2026-05-04 14:01 46.39181 -6.82660 36987 ft 495 kts 135°
2026-05-04 14:02 46.31109 -6.70959 36993 ft 494 kts 136°
2026-05-04 14:02 46.27042 -6.65083 36990 ft 494 kts 136°
2026-05-04 14:03 46.22214 -6.58125 36991 ft 494 kts 136°
2026-05-04 14:03 46.17347 -6.51130 36991 ft 494 kts 136°
2026-05-04 14:04 46.10036 -6.40656 36993 ft 494 kts 136°
2026-05-04 14:04 46.05155 -6.33686 36986 ft 494 kts 136°
2026-05-04 14:05 45.97881 -6.23333 36983 ft 492 kts 136°
2026-05-04 14:06 45.93008 -6.16421 36982 ft 493 kts 136°
2026-05-04 14:06 45.88122 -6.09508 36982 ft 493 kts 137°
2026-05-04 14:07 45.83236 -6.02612 37004 ft 493 kts 137°
2026-05-04 14:07 45.78375 -5.95770 36990 ft 493 kts 137°
2026-05-04 14:08 45.73475 -5.88891 36995 ft 493 kts 137°
2026-05-04 14:08 45.68578 -5.82034 36994 ft 492 kts 137°
2026-05-04 14:09 45.61274 -5.71839 36993 ft 491 kts 137°
2026-05-04 14:10 45.53929 -5.61626 36995 ft 492 kts 137°
2026-05-04 14:10 45.49024 -5.54829 36997 ft 492 kts 137°
2026-05-04 14:11 45.44115 -5.48043 36988 ft 492 kts 137°
2026-05-04 14:11 45.36779 -5.37934 36995 ft 491 kts 138°
2026-05-04 14:12 45.31870 -5.31189 36996 ft 491 kts 138°
2026-05-04 14:13 45.24498 -5.21096 36995 ft 491 kts 138°
2026-05-04 14:13 45.19607 -5.14420 36995 ft 492 kts 138°
2026-05-04 14:14 45.14674 -5.07703 36995 ft 492 kts 138°
2026-05-04 14:14 45.07267 -4.97651 36982 ft 492 kts 139°
2026-05-04 14:15 44.97390 -4.84305 36995 ft 491 kts 139°
2026-05-04 14:16 44.90014 -4.74381 37001 ft 491 kts 139°
2026-05-04 14:17 44.82587 -4.64427 36991 ft 491 kts 139°
2026-05-04 14:18 44.75179 -4.54534 36991 ft 491 kts 139°
2026-05-04 14:19 44.65263 -4.41349 36995 ft 490 kts 139°
2026-05-04 14:19 44.60302 -4.34779 36995 ft 490 kts 139°
2026-05-04 14:20 44.55338 -4.28220 36997 ft 490 kts 139°
2026-05-04 14:20 44.50403 -4.21714 36993 ft 491 kts 139°
2026-05-04 14:21 44.42935 -4.11901 36997 ft 490 kts 140°
2026-05-04 14:21 44.40460 -4.08655 36573 ft 487 kts 140°
2026-05-04 14:21 44.37985 -4.05414 35905 ft 488 kts 140°
2026-05-04 14:22 44.35506 -4.02173 35322 ft 487 kts 140°
2026-05-04 14:22 44.33029 -3.99049 34738 ft 485 kts 144°
2026-05-04 14:22 44.30388 -3.96140 34156 ft 482 kts 145°
2026-05-04 14:22 44.27740 -3.93308 33270 ft 477 kts 146°
2026-05-04 14:23 44.22517 -3.87842 31049 ft 459 kts 146°
2026-05-04 14:23 44.19984 -3.85210 30312 ft 453 kts 147°
2026-05-04 14:23 44.17443 -3.82578 29455 ft 456 kts 147°
2026-05-04 14:24 44.14895 -3.79939 28707 ft 456 kts 146°
2026-05-04 14:24 44.12395 -3.77345 28220 ft 451 kts 146°
2026-05-04 14:24 44.09894 -3.74747 27664 ft 447 kts 146°
2026-05-04 14:24 44.07409 -3.72166 27126 ft 444 kts 146°
2026-05-04 14:25 44.04945 -3.69609 26587 ft 441 kts 146°
2026-05-04 14:25 44.00065 -3.64554 25493 ft 435 kts 146°
2026-05-04 14:25 43.97646 -3.62053 24974 ft 432 kts 146°
2026-05-04 14:26 43.95243 -3.59571 24425 ft 430 kts 147°
2026-05-04 14:26 43.92847 -3.57100 23896 ft 428 kts 147°
2026-05-04 14:26 43.90495 -3.54676 23325 ft 426 kts 147°
2026-05-04 14:26 43.88124 -3.52235 22739 ft 423 kts 147°
2026-05-04 14:27 43.85768 -3.49811 22191 ft 420 kts 147°
2026-05-04 14:27 43.83429 -3.47408 21650 ft 417 kts 147°
2026-05-04 14:27 43.81104 -3.45021 21095 ft 415 kts 147°
2026-05-04 14:27 43.78792 -3.42649 20543 ft 412 kts 147°
2026-05-04 14:28 43.76495 -3.40297 20014 ft 409 kts 147°
2026-05-04 14:28 43.74217 -3.37966 19475 ft 406 kts 147°
2026-05-04 14:28 43.71952 -3.35651 18934 ft 404 kts 147°
2026-05-04 14:28 43.69696 -3.33346 18394 ft 402 kts 147°
2026-05-04 14:29 43.65272 -3.28784 17257 ft 396 kts 146°
2026-05-04 14:29 43.60923 -3.24218 16205 ft 390 kts 146°
2026-05-04 14:30 43.58768 -3.21963 15691 ft 388 kts 146°
2026-05-04 14:30 43.56626 -3.19725 15175 ft 386 kts 146°
2026-05-04 14:30 43.52357 -3.15276 14144 ft 383 kts 145°
2026-05-04 14:31 43.50240 -3.13073 13591 ft 380 kts 145°
2026-05-04 14:31 43.46078 -3.08748 12547 ft 374 kts 145°
2026-05-04 14:32 43.42127 -3.04642 11754 ft 332 kts 145°
2026-05-04 14:32 43.40344 -3.02790 11349 ft 311 kts 146°
2026-05-04 14:32 43.38672 -3.01056 10974 ft 292 kts 145°
2026-05-04 14:32 43.37095 -2.99424 10676 ft 276 kts 145°
2026-05-04 14:33 43.35599 -2.97877 10366 ft 263 kts 145°
2026-05-04 14:33 43.34196 -2.96428 10148 ft 249 kts 145°
2026-05-04 14:33 43.32835 -2.95025 9811 ft 241 kts 145°
2026-05-04 14:33 43.31509 -2.93640 9355 ft 238 kts 143°
2026-05-04 14:34 43.30350 -2.92027 8848 ft 239 kts 127°
2026-05-04 14:34 43.29498 -2.90066 8327 ft 240 kts 117°
2026-05-04 14:34 43.28762 -2.88031 7959 ft 236 kts 116°
2026-05-04 14:34 43.28047 -2.86020 7641 ft 234 kts 116°
2026-05-04 14:35 43.27335 -2.84025 7337 ft 231 kts 115°
2026-05-04 14:35 43.26628 -2.82051 6903 ft 230 kts 115°
2026-05-04 14:35 43.25928 -2.80106 6464 ft 229 kts 115°
2026-05-04 14:35 43.25226 -2.78159 6083 ft 224 kts 115°
2026-05-04 14:36 43.24560 -2.76320 6032 ft 209 kts 115°
2026-05-04 14:36 43.23926 -2.74569 5984 ft 201 kts 115°
2026-05-04 14:36 43.23311 -2.72873 5986 ft 198 kts 115°
2026-05-04 14:36 43.22695 -2.71168 5989 ft 201 kts 115°
2026-05-04 14:37 43.22069 -2.69442 5991 ft 204 kts 115°
2026-05-04 14:37 43.21428 -2.67677 5996 ft 209 kts 115°
2026-05-04 14:37 43.20779 -2.65892 5990 ft 210 kts 115°
2026-05-04 14:37 43.20136 -2.64123 5989 ft 210 kts 115°
2026-05-04 14:38 43.19492 -2.62355 5984 ft 204 kts 114°
2026-05-04 14:38 43.18869 -2.60645 5980 ft 199 kts 113°
2026-05-04 14:38 43.18249 -2.58936 5986 ft 202 kts 115°
2026-05-04 14:38 43.17622 -2.57219 5976 ft 201 kts 115°
2026-05-04 14:39 43.16986 -2.55499 5995 ft 204 kts 114°
2026-05-04 14:39 43.16326 -2.53762 5992 ft 208 kts 115°
2026-05-04 14:39 43.15657 -2.52002 5982 ft 214 kts 115°
2026-05-04 14:40 43.14337 -2.48457 5972 ft 203 kts 113°
2026-05-04 14:40 43.14120 -2.46652 5957 ft 185 kts 75°
2026-05-04 14:40 43.14710 -2.45193 5797 ft 175 kts 37°
2026-05-04 14:40 43.15826 -2.44651 5590 ft 174 kts 356°
2026-05-04 14:41 43.16915 -2.45287 5478 ft 174 kts 317°
2026-05-04 14:41 43.17682 -2.46571 5437 ft 174 kts 304°
2026-05-04 14:41 43.18561 -2.49740 5277 ft 183 kts 287°
2026-05-04 14:42 43.19149 -2.53131 5241 ft 182 kts 285°
2026-05-04 14:42 43.19418 -2.54822 5285 ft 181 kts 285°
2026-05-04 14:42 43.19667 -2.56510 5146 ft 179 kts 284°
2026-05-04 14:43 43.19893 -2.58156 4873 ft 174 kts 286°
2026-05-04 14:43 43.20140 -2.59777 4639 ft 171 kts 285°
2026-05-04 14:43 43.20399 -2.61325 4549 ft 166 kts 285°
2026-05-04 14:43 43.20653 -2.62826 4472 ft 158 kts 285°
2026-05-04 14:44 43.20898 -2.64244 4476 ft 149 kts 287°
2026-05-04 14:44 43.21108 -2.65606 4374 ft 142 kts 283°
2026-05-04 14:44 43.21354 -2.66921 4386 ft 142 kts 291°
2026-05-04 14:44 43.21747 -2.68170 4266 ft 143 kts 299°
2026-05-04 14:45 43.22186 -2.69374 4081 ft 140 kts 297°
2026-05-04 14:45 43.22589 -2.70601 3798 ft 143 kts 296°
2026-05-04 14:45 43.23038 -2.71790 3551 ft 142 kts 301°
2026-05-04 14:45 43.23530 -2.72949 3309 ft 141 kts 299°
2026-05-04 14:46 43.23975 -2.74173 3045 ft 145 kts 297°
2026-05-04 14:46 43.24415 -2.75444 2836 ft 149 kts 297°
2026-05-04 14:46 43.24855 -2.76703 2637 ft 145 kts 298°
2026-05-04 14:46 43.25305 -2.77946 2386 ft 146 kts 298°
2026-05-04 14:47 43.25763 -2.79191 2172 ft 145 kts 298°
2026-05-04 14:47 43.26219 -2.80436 1960 ft 146 kts 300°
2026-05-04 14:47 43.26680 -2.81702 1679 ft 152 kts 298°
2026-05-04 14:47 43.27143 -2.82987 1478 ft 151 kts 299°
2026-05-04 14:48 43.27622 -2.84247 1289 ft 148 kts 299°
2026-05-04 14:48 43.28092 -2.85506 1015 ft 149 kts 297°
2026-05-04 14:48 43.28531 -2.86765 793 ft 144 kts 297°
2026-05-04 14:48 43.28978 -2.87985 554 ft 141 kts 299°
2026-05-04 14:49 43.29436 -2.89216 325 ft 154 kts 296°
2026-05-04 14:49 43.29897 -2.90487 153 ft 141 kts 298°
2026-05-04 14:49 43.30228 -2.91388 126 ft 76 kts 296°
2026-05-04 14:49 43.30393 -2.91836 126 ft 40 kts 296°
2026-05-04 14:50 43.30501 -2.92135 128 ft 30 kts 296°
2026-05-04 14:50 43.30581 -2.92354 126 ft 18 kts 297°
2026-05-04 14:50 43.30657 -2.92459 127 ft 15 kts 336°
2026-05-04 14:50 43.30743 -2.92500 128 ft 10 kts 345°
2026-05-04 14:51 43.30793 -2.92467 129 ft 8 kts 65°
2026-05-04 14:51 43.30780 -2.92402 125 ft 8 kts 115°
2026-05-04 14:51 43.30757 -2.92329 127 ft 9 kts 112°
2026-05-04 14:51 43.30731 -2.92245 127 ft 10 kts 115°
2026-05-04 14:52 43.30699 -2.92151 124 ft 12 kts 115°
2026-05-04 14:52 43.30658 -2.92036 131 ft 14 kts 116°
2026-05-04 14:52 43.30616 -2.91922 130 ft 13 kts 116°
2026-05-04 14:52 43.30577 -2.91812 126 ft 12 kts 116°
2026-05-04 14:53 43.30542 -2.91714 131 ft 10 kts 116°
2026-05-04 14:53 43.30512 -2.91634 126 ft 8 kts 116°
2026-05-04 14:53 43.30488 -2.91572 127 ft 7 kts 120°
2026-05-04 14:53 43.30457 -2.91495 126 ft 12 kts 118°
2026-05-04 14:54 43.30417 -2.91390 126 ft 12 kts 117°
2026-05-04 14:54 43.30378 -2.91282 125 ft 13 kts 117°
2026-05-04 14:54 43.30338 -2.91173 126 ft 13 kts 116°
2026-05-04 14:54 43.30310 -2.91073 126 ft 9 kts 87°
2026-05-04 14:55 43.30350 -2.91010 126 ft 9 kts 33°
2026-05-04 14:55 43.30392 -2.90965 126 ft 6 kts 51°
2026-05-04 14:55 43.30406 -2.90909 131 ft 7 kts 83°
2026-05-04 14:55 43.30408 -2.90834 131 ft 9 kts 90°
2026-05-04 14:56 43.30392 -2.90758 126 ft 7 kts 117°
2026-05-04 14:56 43.30371 -2.90700 130 ft 6 kts 116°
2026-05-04 14:56 43.30352 -2.90651 123 ft 6 kts 118°
2026-05-04 14:56 43.30329 -2.90608 129 ft 5 kts 139°
2026-05-04 14:57 43.30305 -2.90581 124 ft 4 kts 135°
2026-05-04 14:57 43.30308 -2.90562 129 ft 2 kts 68°
2026-05-04 14:57 43.30329 -2.90540 125 ft 4 kts 33°
2026-05-04 14:57 43.30359 -2.90521 127 ft 4 kts 26°
2026-05-04 14:58 43.30374 -2.90511 126 ft 1 kts 26°
2026-05-04 14:58 43.30376 -2.90509 126 ft 0 kts 26°
2026-05-04 15:09 43.30376 -2.90510 131 ft 0 kts 26°
2026-05-04 15:17 43.30375 -2.90510 131 ft 0 kts 26°